Home   Weather   Ahlen   Past weeks

Flag for Germany Past Weather in Ahlen, North Rhine-Westphalia, Germany — Yesterday and Last 2 Weeks

54 °F

Partly sunny.

Feels Like: 50 °F
Forecast: 43 / 54 °F
Wind: 13 mph from West

Location: Dortmund / Wickede

Current Time: Oct 28, 2016 at 12:17:57 PM

Latest Report: Oct 28, 2016 at 11:50 AM

Visibility: N/A

Pressure: 30.45 "Hg

Humidity: 77%

Dew Point: 46 °F

Location of AhlenLocation

Past Weather in Ahlen — Graph


Ahlen Temperature Yesterday

Maximum temperature yesterday: 55 °F (at 1:50 PM)
Minimum temperature yesterday: 48 °F (at 5:20 AM)
Average temperature yesterday: 51 °F

High & Low Weather Summary for the Past Weeks

High66 °F (Oct 16, 3:20 PM)100% (Oct 23, 7:50 AM)30.48 "Hg (Oct 23, 7:50 AM)
Low32 °F (Oct 23, 6:50 AM)40% (Oct 16, 3:20 PM)29.65 "Hg (Oct 15, 5:20 AM)
Average48 °F80%30.04 "Hg
* Reported Oct 13 10:20 AM — Oct 28 10:50 AM, Ahlen, Weather by CustomWeather, © 2016

Note: Actual official high and low records may vary slightly from our data, if they occured in-between our weather recording intervals... More about our weather records


Ahlen Weather History for the Previous 24 Hours

Scroll right to see more
Time TempWeatherWind HumidityBarometerVisibility
10:50 AM
Fri, Oct 28
54 °FPartly sunny.16 mph77%30.45 "HgN/A
10:20 AM52 °FPartly sunny.14 mph82%30.45 "HgN/A
9:50 AM52 °FPartly sunny.14 mph82%30.45 "HgN/A
9:20 AM52 °FPartly sunny.15 mph82%30.45 "HgN/A
8:50 AM52 °FPartly sunny.13 mph77%30.42 "HgN/A
8:20 AM52 °FPartly sunny.13 mph77%30.42 "HgN/A
7:50 AM52 °FPassing clouds.12 mph77%30.42 "HgN/A
7:20 AM52 °FPassing clouds.13 mph77%30.42 "HgN/A
6:50 AM52 °FPassing clouds.13 mph77%30.42 "HgN/A
6:20 AM52 °FPassing clouds.14 mph82%30.42 "HgN/A
5:50 AM52 °FPassing clouds.14 mph82%30.42 "HgN/A
5:20 AM52 °FPassing clouds.12 mph82%30.42 "HgN/A
9:50 PM
Thu, Oct 27
50 °FClear.10 mph82%30.45 "Hg10 mi
9:20 PM50 °FPassing clouds.12 mph82%30.45 "HgN/A
8:50 PM50 °FPassing clouds.10 mph82%30.45 "HgN/A
8:20 PM50 °FPassing clouds.8 mph82%30.48 "HgN/A
7:50 PM52 °FPassing clouds.9 mph77%30.48 "HgN/A
7:20 PM52 °FPassing clouds.12 mph77%30.45 "HgN/A
6:50 PM50 °FPassing clouds.12 mph82%30.45 "HgN/A
6:20 PM52 °FPassing clouds.8 mph77%30.48 "HgN/A
5:50 PM52 °FPartly sunny.7 mph77%30.48 "HgN/A
5:20 PM54 °FPartly sunny.8 mph77%30.48 "HgN/A
4:50 PM54 °FPartly sunny.8 mph77%30.48 "HgN/A
4:20 PM54 °FPartly sunny.9 mph77%30.48 "HgN/A
3:50 PM54 °FPartly sunny.10 mph77%30.48 "HgN/A
3:20 PM54 °FPartly sunny.10 mph77%30.48 "HgN/A
2:50 PM54 °FPartly sunny.12 mph77%30.48 "HgN/A
2:20 PM55 °FPartly sunny.12 mph72%30.48 "HgN/A
1:50 PM55 °FPartly sunny.9 mph77%30.48 "Hg4 mi
1:20 PM54 °FPartly sunny.7 mph82%30.48 "Hg4 mi
12:50 PM54 °FPartly sunny.7 mph77%30.48 "Hg5 mi
12:20 PM54 °FFog.8 mph77%30.48 "Hg3 mi
Weather by CustomWeather, © 2016

See weather overviewHow to use our weather pages